Погода в Охотине

Россия / Ярославская область     57°47′55″N   38°30′10″E
темп.,
°C
ветер,
м/с
пор.,
м/с
влажн.,
%
обл.,
%
осадки,
мм/ч
давл.,
гПа
погр.,
м
5 марта, пт
пт500:00−10зсз229460 0.0 100121
03:00−11з229555 0.0 100321
06:00−10з249687 0.1 100399
09:00−7зсз369593 0.9 1005398
12:00−5сз4690100 0.5 1006744
15:00−6ссз4783100 0.8 1008884
18:00−10ссз238856 0.1 101021
21:00−13з228828 0.1 101220
6 марта, сб
сб600:00−13зюз369343 0.0 1013104
03:00−14зсз239666 0.0 101557
06:00−15сз239587 0.0 101524
09:00−14сз239343 0.0 1016116
12:00−9з238748 0.0 1016417
15:00−7з368464 0.0 1014679
18:00−10юз339287 0.0 101347
21:00−12ююз379248 0.0 1011123
7 марта, вс
вс700:00−10ююз5128979 0.0 1007310
03:00−7ююз7149290 0.2 1003746
06:00−6ююз71493100 1.3 998919
09:00−5ююз71393100 2.6 9931007
12:00−4ююз71294100 1.8 989950
15:00−3юз4796100 3.4 989575
18:00−7зсз71376100 1.7 990958
21:00−12з368984 1.7 992111
8 марта, пн
пн800:00−14зсз22860 0.0 99120
03:00−16зсз23830 0.0 99220
06:00−16зсз359123 0.0 99272
09:00−11зсз489462 0.2 994486
12:00−7ссз5891100 0.5 996752
15:00−8ссз61089100 0.8 999856
18:00−10ссз51190100 0.1 1002711
21:00−12ссз41093100 0.2 1006520
9 марта, вт
вт900:00−14ссз4109499 0.1 1008385
03:00−15ссз4994100 0.1 1010474
06:00−18ссз4995100 0.1 1013353
09:00−21ссз379593 0.1 1014294
12:00−17сз359187 0.0 1015393
15:00−16ссз368885 0.0 1016499
18:00−20с239445 0.0 101620
21:00−22с229622 0.0 101820